GFSNE_925_temp_021.txt.gz
Temp
21 21 21 21 21 21 21 22 23 24 24 23 23 22 22 22 22 21 21 21 21 21 21 21 20 20 20 20 20 19 19 19 19 19 19 19 18 18
21 20 21 21 20 20 21 21 21 23 24 23 22 22 21 21 21 22 21 21 21 21 20 20 20 20 20 20 20 20 20 19 19 19 19 19 19 19
22 20 20 20 21 21 20 20 21 21 23 23 21 21 22 21 20 20 20 20 20 20 20 20 19 19 19 19 19 19 19 19 19 19 19 19 19 19
21 20 20 20 19 20 20 20 21 20 22 21 22 21 21 20 20 20 20 20 20 20 20 19 19 18 18 18 19 18 18 18 18 18 18 18 18 18
21 21 22 20 19 20 20 20 20 20 20 21 22 21 20 20 20 19 19 19 19 19 19 18 18 18 18 18 18 18 18 18 18 17 17 17 17 17
22 21 20 20 20 20 19 19 19 19 19 20 21 21 20 20 19 20 21 20 19 19 19 19 18 18 18 18 18 18 17 17 16 16 16 16 16 16
21 20 20 22 22 21 20 19 19 19 20 20 21 21 21 21 21 21 20 20 19 18 18 18 18 18 18 17 17 17 17 17 16 16 16 16 15 15
21 20 20 22 22 21 21 20 20 19 20 21 21 21 21 20 20 20 20 20 20 17 18 19 18 18 18 18 17 16 16 16 15 15 15 15 15 15
21 20 20 20 22 21 20 20 20 20 20 19 20 20 20 19 18 17 18 18 19 19 16 18 18 18 18 17 16 16 16 16 15 15 15 15 15 14
21 20 20 20 20 20 19 19 18 19 20 19 19 19 19 18 18 18 17 16 16 16 15 17 18 17 17 16 16 15 15 15 15 15 15 14 14 14
20 20 20 20 21 21 19 19 19 19 19 19 18 19 19 18 17 16 17 16 19 19 16 16 17 16 16 16 16 15 15 15 15 14 14 14 14 14
20 19 19 21 20 20 19 19 19 19 18 18 18 18 18 17 17 16 17 18 19 18 16 16 17 16 17 17 15 15 15 15 14 14 14 14 14 13
20 19 19 20 20 20 19 19 20 19 17 17 17 16 16 16 16 16 15 16 17 17 16 14 16 15 15 15 15 15 15 15 15 15 14 14 13 13
20 19 20 21 19 19 19 19 19 19 18 18 18 18 17 17 16 15 15 15 15 14 14 13 14 15 15 15 16 15 15 15 15 15 15 14 13 13
19 19 21 20 19 19 19 19 19 18 18 18 18 18 17 17 15 15 15 15 15 14 13 14 13 13 13 14 15 15 15 15 15 14 14 14 13 13
18 17 18 18 18 18 18 18 17 18 18 18 18 17 16 15 15 15 15 15 15 15 13 13 13 12 13 14 14 14 15 15 15 14 14 13 13 13
17 17 17 16 15 16 16 16 16 16 16 17 17 16 16 16 16 15 15 15 15 15 15 14 13 12 12 12 13 15 15 15 14 14 13 13 13 13
18 17 16 16 16 16 16 16 15 15 16 16 16 16 16 16 16 14 14 14 15 15 14 14 13 14 14 14 13 14 14 14 14 13 12 12 13 13
16 16 16 16 17 17 17 16 16 16 15 16 16 16 16 16 14 15 14 14 14 14 14 14 13 14 15 16 15 13 13 13 13 13 13 12 12 12
17 16 17 17 17 17 17 17 17 16 15 16 15 16 15 15 15 15 14 14 14 14 14 14 14 14 14 14 13 13 12 11 12 12 11 11 11 11
16 17 18 17 17 17 17 16 17 16 16 16 16 16 15 15 15 15 15 13 13 13 14 14 14 12 11 11 13 15 13 12 11 10 10 9 10 10
16 17 17 17 17 17 16 16 16 15 15 15 16 15 15 15 15 14 14 14 14 13 14 13 13 13 13 14 14 14 13 12 11 11 10 9 8 9
16 17 17 17 17 16 16 15 16 16 16 16 16 15 14 14 14 14 14 14 14 14 14 13 14 14 13 14 12 13 13 12 11 11 11 10 8 7

GFSNE_925_temp_024.txt.gz
Temp
23 22 23 25 25 25 25 25 26 27 27 25 25 24 24 24 23 22 22 22 21 21 21 21 21 21 20 20 20 19 19 19 19 19 19 19 19 19
24 23 23 25 24 24 25 25 25 26 27 26 25 25 24 24 23 22 22 21 21 21 21 21 21 20 20 20 20 20 19 19 19 19 19 19 19 19
23 23 22 23 25 25 24 24 25 25 26 26 25 24 22 22 23 22 22 22 22 21 21 21 21 20 20 20 20 19 19 19 19 19 19 18 18 18
23 23 22 22 22 23 24 24 24 24 24 24 25 24 22 22 21 21 22 23 23 22 21 21 20 20 19 19 19 19 19 19 18 18 18 18 18 18
24 23 23 22 22 24 23 24 23 23 22 24 24 24 24 23 22 21 21 21 21 21 20 20 20 19 19 18 18 18 18 18 18 18 17 17 17 17
24 24 23 22 22 21 22 22 23 23 23 23 24 24 24 23 22 23 23 22 22 22 22 21 20 19 18 18 18 17 18 17 17 16 16 16 16 16
24 24 23 22 22 22 22 22 22 22 24 24 24 24 24 24 23 23 24 23 23 22 21 21 21 21 20 19 19 18 17 17 16 16 16 15 15 15
24 24 23 22 21 21 22 23 22 22 22 24 25 25 24 23 23 23 23 23 23 21 20 21 22 22 21 21 19 18 17 16 16 16 16 16 15 15
24 24 24 23 21 20 20 22 21 21 21 22 22 23 23 22 21 21 21 21 21 21 20 21 21 21 21 21 18 17 16 16 15 15 15 15 15 15
25 24 24 24 22 21 21 19 20 20 19 20 21 22 21 21 20 19 19 20 20 20 19 19 20 21 20 19 18 17 16 15 15 15 15 14 14 14
25 24 24 23 23 21 21 21 20 20 20 20 20 20 20 20 19 20 20 21 22 22 19 20 20 20 19 19 19 17 16 16 15 15 15 14 14 14
25 24 23 23 22 21 20 21 21 21 21 20 18 18 18 19 19 18 20 21 21 22 19 19 20 19 19 19 18 18 17 17 16 16 15 15 15 14
27 25 24 22 21 21 20 20 20 21 21 21 20 19 18 18 18 17 18 19 21 21 17 18 18 18 19 19 19 18 18 17 17 17 17 16 15 14
27 27 23 22 20 20 20 19 19 20 21 21 21 20 20 20 19 18 17 17 18 17 16 15 16 17 17 18 18 18 18 17 17 17 17 17 16 15
28 25 23 22 20 18 19 19 19 19 21 20 21 21 21 20 19 17 16 15 15 15 15 14 15 16 16 17 17 17 17 17 17 17 17 17 16 16
24 22 20 19 18 18 18 17 18 18 20 20 21 21 20 19 18 18 18 17 18 18 15 14 14 14 15 16 16 17 17 17 17 17 17 16 16 16
19 18 17 16 16 16 16 17 17 18 19 20 20 21 19 18 19 18 18 18 18 19 19 17 14 14 14 14 15 16 17 17 17 17 15 16 15 15
17 16 16 17 17 16 16 16 17 17 19 19 20 19 19 19 19 19 18 18 18 18 18 17 17 16 17 17 15 16 16 16 16 15 15 15 16 15
18 17 17 17 16 16 16 17 17 19 19 19 20 20 19 19 19 19 18 18 18 18 17 17 17 16 17 19 18 15 15 15 15 15 15 15 14 14
18 17 17 17 17 17 18 19 19 19 19 20 19 20 19 19 19 18 19 18 18 18 17 17 16 16 17 17 16 16 15 14 15 14 14 14 13 13
17 17 17 17 18 18 19 20 20 20 20 19 19 20 19 19 19 19 18 17 17 17 17 17 17 15 15 14 15 17 17 15 14 13 13 13 13 13
17 17 18 19 20 20 19 19 20 20 19 19 20 19 19 19 19 18 18 18 16 16 17 17 16 15 15 16 17 17 16 16 14 14 13 12 12 12
17 19 19 19 19 19 19 20 20 19 19 20 20 19 18 18 18 18 18 18 18 17 17 17 16 16 16 16 16 16 16 16 15 15 14 13 11 10

GFSNE_925_temp_027.txt.gz
Temp
24 24 24 27 27 27 27 27 27 28 27 25 26 26 25 25 24 23 23 22 22 22 22 21 21 21 21 20 20 20 20 19 19 19 19 19 19 19
25 25 24 26 27 26 27 27 27 27 28 28 26 26 25 25 24 23 23 23 22 22 22 22 22 21 21 20 20 20 19 19 19 19 19 19 18 18
25 25 24 24 26 27 26 26 27 26 27 27 27 25 24 23 23 23 23 23 23 22 22 22 22 21 21 20 20 19 19 19 19 19 19 18 18 18
24 25 25 24 23 25 26 26 26 26 26 26 26 25 23 23 23 23 22 24 24 23 22 21 21 21 21 20 19 19 19 19 18 18 18 18 18 17
25 24 24 24 24 24 25 26 25 25 25 24 26 25 25 23 23 22 22 22 22 23 22 22 21 21 20 20 19 19 19 18 18 18 18 18 17 17
25 25 24 24 23 23 24 24 25 25 24 25 25 26 26 25 24 24 23 22 22 23 22 22 22 21 21 20 20 20 19 18 18 17 17 17 17 17
26 25 25 24 24 23 23 24 24 24 25 25 25 25 26 26 24 24 23 24 22 23 23 22 22 21 21 21 20 19 18 17 17 17 17 16 16 16
26 26 25 25 24 23 23 24 23 24 24 26 26 26 25 25 25 24 24 23 23 23 22 22 22 23 23 20 19 18 18 17 16 16 16 16 16 16
25 26 26 26 24 23 22 23 23 23 23 23 24 25 25 24 24 22 22 22 22 22 21 21 22 22 22 20 19 19 18 17 17 16 16 15 15 15
26 25 26 26 25 23 22 21 21 22 22 22 22 22 23 23 22 21 21 21 20 21 21 21 22 22 22 21 20 19 18 17 17 16 16 15 15 15
26 26 26 25 26 24 23 22 21 21 21 21 22 22 22 22 21 21 21 20 21 22 21 21 22 21 21 21 20 19 18 18 17 17 16 16 16 15
26 26 26 25 25 24 23 22 22 21 21 20 20 20 21 20 20 20 21 21 21 22 22 22 22 21 21 21 20 19 19 19 18 17 17 17 16 15
27 26 26 25 25 24 23 22 22 22 21 21 20 19 19 20 19 19 19 20 22 22 20 20 20 20 20 20 20 20 19 19 19 18 18 18 17 16
28 27 27 26 24 24 23 23 22 22 22 20 20 20 20 20 20 19 18 19 20 19 18 18 19 19 19 19 20 20 19 19 18 18 18 18 18 17
27 29 28 28 26 24 23 21 21 21 21 20 21 21 21 20 21 19 18 17 17 17 17 16 17 17 17 18 19 19 19 18 18 18 18 18 18 17
24 25 25 28 26 23 22 20 19 19 21 20 21 21 21 20 20 19 18 17 18 18 17 16 16 15 16 17 18 18 18 18 18 18 17 17 17 17
22 22 20 19 18 18 18 19 18 18 20 21 20 20 19 19 19 19 19 19 19 20 19 16 15 15 16 16 16 17 17 18 18 18 16 16 16 17
20 19 19 18 17 17 17 17 18 18 19 19 19 19 18 19 20 20 20 20 20 20 20 20 17 17 17 16 16 17 18 18 18 17 16 16 17 16
21 19 19 18 18 17 17 17 18 17 18 17 18 19 20 20 20 20 20 20 20 20 20 20 19 18 19 19 19 17 17 17 16 16 16 16 15 15
20 20 19 18 18 17 17 17 17 17 16 17 20 20 21 21 21 20 20 20 19 20 19 19 18 18 18 18 18 17 16 15 16 16 15 15 15 14
18 20 18 18 18 17 17 17 17 17 18 19 20 21 21 21 21 20 20 20 20 20 19 19 18 18 17 17 16 17 18 16 15 15 15 15 15 14
16 17 18 18 18 17 17 17 17 19 19 20 21 21 21 21 21 21 20 20 19 19 19 19 17 17 16 16 17 18 18 18 16 16 15 15 14 14
17 17 17 17 17 17 17 18 19 20 20 20 21 21 21 21 21 21 20 20 20 18 18 18 18 18 17 17 17 18 17 17 18 17 17 15 14 13

GFSNE_925_temp_030.txt.gz
Temp
24 24 25 26 27 27 27 27 27 24 23 26 26 26 26 25 24 23 23 23 22 22 22 22 21 21 21 20 20 19 19 19 19 19 19 19 18 18
24 24 24 26 26 27 27 27 27 27 24 26 26 26 25 25 24 24 23 23 23 22 22 22 22 21 21 20 20 20 19 19 19 18 18 18 18 18
25 25 24 25 26 27 27 27 27 27 26 27 26 25 25 25 24 23 23 23 23 23 23 22 22 22 21 21 21 20 19 19 18 18 18 18 18 18
25 25 24 24 25 26 26 26 26 26 26 26 26 24 25 25 24 23 22 23 23 23 23 22 22 22 21 21 21 21 20 19 19 19 19 18 18 18
25 24 25 24 24 25 25 26 26 26 26 25 25 25 24 24 24 23 23 22 23 23 22 22 22 22 22 22 21 21 20 19 19 19 18 18 18 17
26 24 24 24 24 24 25 25 25 25 25 25 24 25 25 25 23 23 22 22 22 22 22 22 22 22 22 22 21 21 20 19 18 18 18 18 17 17
25 26 25 24 24 24 24 24 25 24 25 24 24 24 25 25 23 23 23 23 23 23 22 22 22 22 22 22 21 20 20 19 18 17 17 17 16 16
25 25 25 25 24 24 24 24 24 24 24 24 23 23 24 25 25 24 24 23 22 23 22 22 22 22 22 22 21 20 19 19 18 17 17 16 16 16
25 25 25 25 25 24 24 24 23 23 24 24 24 25 25 25 25 24 23 23 22 22 22 21 22 21 22 22 20 19 18 18 17 17 17 16 16 16
25 25 25 26 25 24 24 23 23 23 23 23 24 25 25 24 24 24 23 22 21 21 21 20 21 21 21 21 20 20 19 18 18 18 17 17 17 16
26 26 25 25 25 25 23 22 22 22 23 23 23 23 23 23 22 22 21 20 20 21 21 21 21 21 21 21 20 19 19 19 19 18 18 17 17 16
26 26 26 25 25 25 24 23 22 22 21 22 22 22 22 22 22 21 21 20 21 21 21 21 21 21 21 21 21 19 20 19 19 18 18 18 17 16
26 26 26 26 26 25 25 23 23 22 21 21 21 20 21 21 21 21 21 21 21 21 21 21 21 21 20 20 20 20 20 19 19 18 18 18 18 17
26 27 27 26 26 26 25 24 23 23 21 20 20 19 19 19 19 20 20 20 20 20 20 20 20 20 20 19 19 19 19 19 19 18 18 18 18 18
25 26 27 27 27 26 26 25 23 22 22 21 20 19 19 19 20 19 19 19 19 19 19 19 19 18 18 18 18 18 18 18 18 18 18 18 17 17
25 25 25 26 26 25 26 25 23 22 21 20 20 19 19 19 20 19 19 18 17 17 17 18 18 18 17 17 17 17 18 18 17 18 18 17 17 16
25 23 24 23 24 22 21 20 20 21 20 20 19 19 20 19 18 18 18 17 17 17 17 17 17 17 17 16 16 17 17 17 17 18 17 16 16 16
23 23 23 22 21 22 21 19 19 20 20 20 19 19 18 17 17 17 17 17 17 18 18 16 16 15 15 15 16 17 17 17 18 17 17 16 16 15
23 22 22 22 21 21 21 20 19 20 20 19 18 18 17 16 16 15 17 18 18 19 19 17 16 15 14 15 18 18 17 17 17 16 16 16 15 15
19 21 21 21 21 20 20 19 20 19 19 18 17 17 18 16 16 17 18 19 19 19 20 20 17 16 18 16 18 17 16 17 16 16 16 16 15 15
16 16 17 18 18 19 19 19 19 19 19 18 17 16 16 16 16 17 19 19 19 19 18 19 19 19 18 18 16 16 17 17 17 16 16 15 15 15
16 17 17 17 17 17 18 18 18 19 18 18 17 16 16 17 18 19 20 19 19 19 19 19 19 18 18 17 16 17 17 17 17 17 16 16 14 13
17 17 17 18 17 18 17 17 17 17 17 17 17 17 17 19 20 20 20 20 19 19 19 18 17 17 17 17 16 16 17 18 17 17 16 16 15 15

GFSNE_925_temp_033.txt.gz
Temp
25 25 26 26 26 26 27 27 25 20 20 26 26 25 25 25 24 23 23 23 22 22 22 22 21 21 21 21 20 20 20 19 19 19 19 19 19 19
24 25 25 26 26 26 27 27 26 26 21 25 26 26 25 25 25 24 23 23 22 22 22 22 22 22 21 21 21 21 20 19 19 19 19 19 18 18
24 24 24 25 26 26 26 27 26 26 24 26 26 26 25 25 24 24 23 23 23 23 23 22 22 22 22 21 21 21 20 20 19 19 18 18 18 18
24 24 24 24 25 26 25 26 26 26 26 25 25 25 25 25 25 24 23 23 23 23 23 23 22 22 22 21 21 21 20 20 19 18 18 18 18 18
25 25 24 24 25 25 26 25 26 26 26 26 25 25 25 25 24 23 23 23 23 22 22 22 23 22 22 22 22 21 21 20 19 18 18 18 18 17
25 24 25 24 25 25 25 25 25 25 26 25 25 24 24 24 24 23 22 23 23 23 22 22 23 22 22 22 22 21 21 20 19 19 18 18 17 17
25 25 24 24 25 25 25 25 25 25 25 24 24 24 24 23 23 23 23 24 23 23 22 22 22 22 22 22 22 21 20 20 19 19 18 17 17 16
24 24 24 24 24 24 25 25 26 25 23 23 23 23 23 24 24 23 22 21 20 23 22 22 22 22 22 22 22 21 20 19 19 19 18 17 16 16
24 24 23 24 24 24 24 24 24 25 25 24 23 23 23 24 24 23 22 22 22 23 23 22 21 21 21 21 22 21 21 20 19 18 18 17 17 16
24 24 24 24 24 24 24 23 23 23 24 24 23 23 24 25 25 24 24 23 23 22 22 21 22 21 21 21 21 21 20 19 18 18 18 18 17 16
24 24 24 24 24 24 24 22 22 22 23 24 24 23 23 24 24 23 23 22 20 21 21 21 21 21 21 21 21 20 20 19 19 18 18 18 17 17
25 24 24 24 24 24 24 23 22 22 21 21 22 23 23 23 23 23 23 21 20 20 21 21 21 21 19 20 21 20 19 19 18 18 18 18 18 17
25 25 25 25 24 24 24 24 23 23 22 21 21 22 21 22 22 22 23 22 21 21 22 22 21 20 20 20 20 20 20 19 19 18 18 18 18 18
25 25 25 25 25 25 25 24 24 23 22 21 21 21 20 19 21 22 22 21 21 22 21 22 21 20 20 18 19 19 18 19 18 18 18 18 18 17
24 25 25 25 25 25 26 25 25 24 22 22 21 21 20 20 20 20 21 20 20 21 21 20 21 21 20 20 18 18 19 18 18 18 18 18 17 17
25 25 25 25 25 25 25 25 25 22 22 22 22 22 21 19 19 18 18 18 18 19 19 19 19 19 19 19 19 18 18 18 18 18 17 17 16 16
24 22 22 22 22 23 23 22 22 23 21 22 22 21 20 18 17 17 17 17 17 15 15 16 16 18 18 18 17 17 17 17 17 17 16 16 16 16
24 23 22 22 22 22 22 22 21 20 20 21 21 21 19 18 18 17 17 16 16 15 15 14 15 16 15 16 17 17 16 16 17 17 16 16 16 15
19 20 20 21 21 22 22 21 22 21 20 20 20 21 19 19 18 17 16 16 15 15 14 14 15 14 11 12 16 17 16 17 16 16 16 16 16 15
16 16 17 18 19 19 19 19 18 19 20 20 20 21 20 19 18 17 16 16 16 15 15 15 14 14 15 14 15 18 17 17 16 16 16 16 16 15
17 17 17 17 17 17 17 17 17 17 17 18 19 19 20 19 17 17 16 16 15 15 16 15 15 18 17 17 16 16 18 17 16 17 16 15 15 15
18 17 17 17 17 17 17 18 18 17 16 17 17 17 16 15 15 15 15 14 14 15 16 16 17 16 16 16 15 16 17 17 16 17 16 16 15 13
18 18 17 17 17 17 16 17 17 17 16 17 18 17 16 16 16 15 14 14 14 15 18 17 16 16 17 17 17 16 16 17 17 17 17 16 16 15

GFSNE_925_temp_036.txt.gz
Temp
24 25 25 25 26 26 25 26 25 19 18 24 25 25 24 24 24 23 23 23 22 22 22 22 22 21 21 21 21 20 20 20 19 19 19 19 18 18
24 25 25 26 26 26 25 26 26 25 19 25 25 26 25 24 24 24 23 23 23 22 22 22 22 22 22 22 21 21 20 20 19 19 18 18 18 18
24 24 24 25 26 26 26 25 25 25 24 26 25 25 25 25 25 24 24 23 23 22 22 22 22 22 22 22 21 21 20 20 20 19 18 18 18 18
24 24 24 24 25 26 26 25 25 26 25 25 26 25 25 25 25 24 24 23 23 23 23 22 22 22 22 22 22 21 21 20 20 20 19 18 18 18
24 24 24 24 24 24 25 25 25 25 25 25 26 25 25 25 24 24 24 23 23 23 23 23 22 22 22 22 22 21 21 20 20 20 19 19 18 17
24 24 24 24 24 24 24 25 25 25 24 24 24 25 25 24 24 24 23 23 23 23 23 22 22 22 22 22 22 21 21 20 20 19 19 19 18 17
24 24 24 24 24 25 24 25 25 24 24 23 22 23 23 23 22 23 22 23 23 23 23 23 22 22 22 22 21 21 21 20 20 19 19 18 17 16
24 24 24 24 24 24 24 24 25 24 23 22 22 21 23 24 24 22 22 21 20 23 23 23 22 22 22 22 22 21 21 20 19 19 19 18 18 17
23 24 24 24 24 24 24 23 24 24 24 24 22 23 23 23 23 22 21 21 22 23 23 22 23 23 22 22 22 21 21 21 20 19 19 18 17 17
23 23 23 23 23 24 23 22 23 23 23 24 23 23 23 23 23 24 24 23 22 23 22 21 23 22 23 22 22 21 21 21 20 19 19 18 17 17
23 23 23 23 23 23 23 22 22 23 23 23 24 24 24 23 23 22 21 20 19 20 22 21 21 22 22 21 21 21 21 20 20 19 19 18 17 17
23 23 23 23 23 23 23 22 22 22 21 21 21 22 23 23 23 22 22 21 21 19 21 20 21 21 19 21 21 20 20 20 19 19 19 18 17 17
23 24 24 24 24 24 23 23 23 24 23 22 21 21 21 20 20 22 22 22 21 21 23 21 20 20 21 19 19 20 20 19 19 19 18 18 17 17
23 24 24 24 24 24 24 24 24 23 22 22 21 20 21 20 20 20 20 21 22 22 22 22 20 19 19 17 18 18 18 19 19 19 18 18 18 17
24 24 24 24 24 24 24 24 24 24 21 21 22 22 21 21 20 20 19 19 19 20 21 22 20 20 19 18 16 16 18 18 18 18 18 18 17 17
25 25 24 24 24 23 23 23 23 23 21 21 21 22 22 21 20 19 18 18 18 18 18 21 20 19 18 18 17 17 18 18 18 17 17 17 17 17
23 23 23 23 23 22 22 22 22 21 21 20 20 21 21 21 20 19 18 18 18 18 16 17 18 19 18 17 15 15 17 18 17 17 17 17 16 16
23 22 21 21 21 21 21 21 21 20 20 20 20 20 20 21 21 20 18 18 18 18 17 15 13 13 13 13 14 15 17 17 17 17 17 16 16 16
19 18 18 18 18 18 18 19 19 20 20 20 18 19 19 20 20 20 19 18 18 18 18 14 13 15 13 13 13 16 18 16 16 16 16 16 16 16
18 17 17 16 16 16 18 18 17 18 18 17 17 17 17 18 18 18 19 19 18 18 17 15 15 14 14 14 14 16 17 17 16 16 15 15 16 15
17 18 17 17 17 17 17 17 16 16 16 17 17 17 17 17 15 15 16 17 18 18 17 14 14 13 13 14 15 15 16 16 17 17 16 15 15 14
17 17 17 17 17 17 17 16 16 16 16 17 16 16 16 15 15 15 15 14 14 13 13 13 13 12 13 14 14 15 16 17 15 16 17 17 16 12
15 16 16 16 16 16 16 17 16 16 16 16 17 16 15 15 15 14 14 13 12 12 12 12 12 12 13 15 16 15 16 16 16 15 16 16 16 16

GFSNE_925_temp_042.txt.gz
Temp
23 24 24 24 24 24 24 24 23 22 22 25 25 26 25 25 25 24 24 23 23 22 22 22 21 21 21 21 20 20 20 20 19 19 19 18 18 18
23 23 23 24 23 23 23 23 23 23 21 24 25 25 26 25 25 25 24 24 23 23 23 22 22 21 21 21 21 20 20 20 20 19 19 19 18 18
23 23 23 23 23 23 23 23 23 22 21 23 24 25 25 26 26 25 25 24 24 24 23 23 22 22 21 21 21 21 21 20 20 20 19 19 19 18
24 23 24 24 23 23 23 23 23 23 22 22 24 24 25 25 25 25 25 25 25 25 24 24 23 22 22 22 21 21 21 21 20 20 20 19 18 18
24 24 24 24 24 24 24 23 23 23 23 21 21 22 23 24 24 24 25 25 25 25 25 24 24 23 22 22 22 21 21 21 21 20 20 19 18 18
25 25 25 24 24 24 24 24 23 23 23 22 21 21 22 23 23 23 23 24 24 25 25 25 25 24 23 23 22 22 22 21 21 20 20 20 19 18
25 25 25 25 25 25 24 24 23 23 21 20 20 20 20 20 21 22 22 23 23 24 24 25 24 24 24 24 23 22 22 22 21 20 20 19 19 18
24 25 25 25 25 25 25 25 24 23 21 21 21 21 21 21 22 22 21 20 22 22 22 22 23 23 24 24 24 23 23 22 22 22 20 19 19 18
25 25 24 25 25 25 25 25 25 24 23 22 21 21 21 21 21 21 20 21 21 22 22 21 21 22 22 24 24 24 23 22 22 22 20 20 19 18
24 24 24 24 23 24 24 24 23 23 23 23 22 22 22 22 21 21 21 21 21 21 20 21 21 21 21 22 23 25 24 23 22 22 21 20 19 17
22 22 23 22 23 23 22 22 22 22 22 24 24 24 24 24 22 21 20 20 20 20 21 20 20 21 20 20 22 23 24 23 23 22 20 20 18 17
21 22 22 22 22 23 22 22 21 21 22 22 22 23 23 23 23 22 21 19 19 20 21 20 20 19 19 19 19 19 21 22 22 21 20 19 18 16
21 21 21 22 23 23 23 22 21 23 22 21 21 21 21 22 22 22 22 20 19 19 20 20 20 19 17 19 19 19 19 20 20 20 20 19 18 16
22 22 23 23 23 23 22 22 23 22 21 21 21 21 21 21 21 21 21 20 20 20 21 20 18 18 18 18 17 18 17 17 18 18 18 18 17 15
23 23 23 22 22 22 23 23 22 22 21 20 20 20 21 21 21 21 21 21 21 20 19 19 19 19 18 18 19 18 16 15 15 15 15 16 15 14
23 23 22 22 22 22 22 22 21 21 21 20 20 20 20 19 19 20 19 18 18 19 19 20 20 19 18 18 18 18 15 16 14 14 14 13 13 14
23 22 21 21 21 21 21 21 20 20 20 19 19 18 18 18 18 17 16 16 16 17 17 18 18 18 18 18 18 18 17 15 15 14 13 12 12 13
21 20 20 20 20 20 19 19 19 19 18 18 18 18 17 15 15 16 15 15 15 15 14 14 14 15 16 17 18 18 18 16 14 13 13 12 10 12
20 19 18 18 17 17 17 17 17 17 17 17 17 17 15 15 15 15 14 14 14 13 13 12 12 13 16 17 14 13 15 14 13 12 12 12 11 12
17 16 15 15 15 16 16 16 17 17 16 16 16 16 16 16 15 15 15 14 14 13 12 12 11 11 12 12 9 8 12 11 11 9 9 10 10 11
15 15 15 15 15 15 15 15 16 16 16 15 16 16 16 16 14 14 14 13 13 12 12 12 11 12 11 11 9 8 9 10 11 11 10 10 9 11
14 14 14 15 14 14 14 14 15 15 15 15 16 16 16 15 14 14 14 13 12 12 12 12 12 13 11 10 9 9 9 10 12 12 11 12 13 12
12 12 11 12 13 12 13 13 14 14 15 15 15 16 15 15 15 14 14 13 13 13 12 12 12 11 12 11 10 10 10 10 9 10 10 12 14 16

GFSNE_925_temp_045.txt.gz
Temp
22 22 22 23 23 23 23 23 25 27 28 26 25 25 25 25 25 25 25 24 24 23 23 22 22 22 21 21 21 20 20 20 20 19 19 19 19 18
23 22 22 23 23 22 23 23 23 24 26 25 25 24 25 25 26 25 25 25 25 24 23 23 23 22 22 22 21 21 20 20 20 20 20 20 20 19
22 22 22 22 23 23 23 23 23 23 24 26 24 23 24 25 25 25 25 25 24 25 25 24 23 23 22 22 22 21 21 21 20 20 20 20 20 19
23 22 22 23 22 22 23 22 23 23 23 24 24 24 23 23 25 25 25 24 24 24 26 25 24 24 23 23 22 22 22 21 21 21 20 19 20 19
23 23 23 23 22 23 23 23 23 22 22 22 23 24 23 23 23 23 23 23 24 25 25 25 25 25 24 24 23 22 22 22 21 21 20 20 19 19
23 23 23 23 23 23 23 23 23 23 23 23 23 24 24 24 22 23 24 24 24 24 24 24 24 25 25 25 24 23 23 22 22 21 21 20 20 19
23 23 23 24 24 24 24 24 23 23 23 24 25 25 25 25 24 25 24 24 24 23 23 23 24 23 22 24 25 24 24 23 22 22 21 20 20 20
23 23 23 24 25 26 25 25 24 23 23 24 25 26 25 24 24 24 24 24 25 25 24 23 23 23 24 23 23 25 25 24 24 23 22 21 20 20
23 24 24 25 24 23 23 25 25 25 23 23 23 23 24 24 23 23 23 23 23 24 23 23 23 23 23 23 23 23 23 24 24 24 23 22 21 20
24 24 24 24 24 24 23 24 24 23 22 22 22 23 22 23 22 22 22 21 21 21 22 21 23 23 23 23 22 22 21 21 22 22 23 23 21 20
23 23 23 23 23 23 22 23 23 23 24 23 23 23 22 22 22 21 20 20 20 21 23 22 23 23 23 23 23 22 21 20 20 21 21 22 22 20
23 22 22 22 22 22 22 22 23 23 24 24 23 22 22 23 23 21 21 19 20 20 22 22 21 21 21 23 22 22 21 20 21 19 20 20 21 19
24 24 24 23 23 23 23 22 22 23 23 22 22 22 22 22 22 22 22 21 20 20 21 20 20 20 20 20 20 20 20 20 19 21 19 19 19 18
24 25 24 23 23 23 23 23 23 23 21 21 21 21 21 21 21 21 21 21 21 21 20 20 19 19 20 20 20 21 19 18 17 17 19 19 18 16
23 24 23 23 22 22 23 23 22 22 21 20 20 20 20 20 21 21 21 21 21 21 20 20 19 19 19 19 19 19 19 19 17 17 16 14 14 13
22 22 22 22 22 22 22 22 22 21 21 20 20 20 20 20 21 21 21 20 19 20 20 19 18 18 17 17 18 18 18 18 18 16 16 14 13 13
23 21 21 21 21 21 21 20 20 20 20 20 20 21 21 21 21 20 19 19 20 19 19 18 17 15 14 15 16 16 15 17 18 17 15 14 13 12
21 20 20 20 20 19 19 19 19 19 19 19 20 20 20 20 19 19 19 19 18 17 17 17 16 12 12 14 13 9 11 12 15 16 15 14 11 10
20 19 19 18 18 18 18 19 20 19 17 18 19 19 19 19 18 19 19 19 18 17 17 17 14 12 12 12 12 9 9 11 12 13 12 11 10 9
18 17 16 17 17 19 19 19 18 18 17 17 17 18 18 18 18 19 18 15 14 16 18 16 13 11 11 11 10 9 9 9 9 9 9 9 9 10
16 15 15 15 15 15 15 15 15 15 15 15 15 17 18 17 18 16 15 14 14 15 15 14 13 12 13 12 10 9 8 10 9 9 10 10 10 9
14 13 13 13 14 14 14 14 14 14 15 15 15 16 16 16 16 17 16 15 14 14 14 15 15 15 15 13 12 10 10 11 11 12 11 12 11 10
11 11 11 12 12 12 12 12 13 13 14 14 14 14 15 15 15 15 15 16 15 15 15 16 16 16 15 15 14 12 10 11 11 12 13 14 15 15

GFSNE_925_temp_048.txt.gz
Temp
25 24 24 27 26 26 26 27 27 29 30 28 29 27 27 27 26 25 24 24 24 24 24 23 23 22 22 22 22 21 21 21 20 20 20 19 19 19
25 25 24 26 26 26 26 27 27 27 29 29 29 28 27 26 26 25 25 24 24 25 24 24 23 23 23 22 22 22 21 21 21 20 20 20 20 20
25 25 24 24 26 27 27 26 27 27 28 29 29 28 25 24 25 25 25 24 25 25 25 25 24 24 23 23 23 22 22 22 21 21 20 20 20 20
25 25 25 25 24 24 26 26 27 27 26 26 27 27 27 26 25 23 24 25 26 27 26 25 25 25 25 24 23 23 23 22 22 21 21 20 20 20
25 25 25 25 25 26 26 26 27 26 26 26 26 27 27 27 26 25 25 25 24 25 25 24 24 25 25 25 24 24 23 23 22 22 21 21 20 20
25 26 26 25 25 25 25 25 25 25 26 26 27 28 28 28 28 27 27 27 28 27 27 26 25 25 25 25 24 24 24 23 23 23 22 21 21 20
26 26 25 25 25 25 26 26 26 26 27 28 28 29 29 29 29 28 28 28 28 28 28 28 28 27 26 25 25 24 24 24 23 23 22 22 21 21
26 26 26 25 24 24 24 25 25 25 25 26 27 28 27 27 28 28 28 28 28 28 27 27 27 26 26 26 26 25 25 24 24 23 22 22 22 21
26 26 26 27 26 26 25 24 24 24 23 23 24 25 25 26 25 25 26 26 25 26 25 25 26 25 26 27 26 26 25 24 23 23 23 22 21 22
26 26 26 26 26 27 26 26 26 26 25 24 23 23 23 24 24 24 23 23 23 23 22 22 25 25 25 25 25 25 24 24 23 23 22 22 21 21
25 25 25 25 25 25 25 25 25 25 26 26 25 25 24 24 23 22 21 22 22 24 24 23 24 25 25 25 25 25 24 24 23 23 22 22 21 20
26 25 25 24 25 24 24 24 25 25 26 26 25 25 24 24 24 22 21 21 21 21 24 22 23 22 22 23 24 24 24 24 23 23 22 21 21 20
27 28 28 27 25 24 23 23 24 24 25 25 24 25 25 24 23 22 22 22 21 21 23 22 22 23 24 25 24 24 24 24 22 21 21 21 20 20
27 29 28 27 26 25 24 23 23 22 22 23 22 21 21 22 21 21 22 22 21 21 21 21 22 22 23 23 24 24 23 22 22 21 19 18 19 20
25 27 26 26 24 24 23 23 22 21 21 21 20 21 21 21 21 22 23 23 22 23 23 21 21 20 20 21 21 21 21 20 19 17 15 17 17 18
22 23 24 24 24 23 23 22 22 22 22 21 20 20 21 21 23 24 24 24 24 24 23 21 20 19 19 19 18 19 15 15 16 16 14 15 17 16
23 24 24 23 23 22 21 21 21 21 20 20 20 21 24 24 24 24 23 23 23 23 22 22 21 19 17 16 17 15 11 12 13 12 13 15 16 14
21 22 22 22 21 21 20 20 20 20 20 21 23 24 24 24 24 23 23 22 23 23 22 21 21 18 17 17 15 12 9 10 10 11 12 11 11 11
21 21 20 20 19 18 19 19 21 21 21 22 23 23 23 23 22 23 23 23 23 21 21 21 20 17 15 18 16 11 9 10 9 9 10 9 9 9
19 19 18 18 18 19 20 21 22 21 19 19 19 21 22 22 22 22 21 20 19 19 21 21 19 17 15 16 13 11 9 9 9 9 9 9 9 8
22 21 20 19 18 16 16 16 17 17 17 17 17 19 19 19 20 19 18 17 17 18 20 20 19 16 16 17 16 12 10 10 10 10 10 10 9 9
17 16 16 15 14 15 15 15 15 15 15 15 15 16 17 17 17 18 18 17 17 17 18 19 19 18 19 19 18 14 12 11 11 11 11 11 11 10
14 15 15 14 14 14 14 14 14 14 15 15 16 17 17 17 17 17 17 17 17 16 17 19 20 19 19 19 18 17 15 14 14 14 13 13 14 13